Overview Statistics Trail Chart Weather Telemetry Raw packets
 

This is the latest recevied weather packets stored in our database for station/object WX5II-15. If no packets are shown the sender has not sent any weather packets the latest 10 day(s).

<< 46 47 48 49 50 51 52 >>
Time Temp. Humidity Pressure Rain* Wind** Luminosity Snow
1787864685 42.22° C 31% 1004 hPa 0 mm - - -
1787864085 41.67° C 32% 1004 hPa 0 mm - - -
1787863484 42.22° C 33% 1004 hPa 0 mm - - -
1787862884 41.67° C 34% 1004.4 hPa 0 mm - - -
1787862283 41.67° C 33% 1004.4 hPa 0 mm - - -
1787861682 42.78° C 33% 1004.7 hPa 0 mm - - -
1787861082 42.22° C 33% 1005 hPa 0 mm - - -
1787860481 42.22° C 33% 1005 hPa 0 mm - - -
1787859881 41.11° C 35% 1005 hPa 0 mm - - -
1787859280 40° C 35% 1005.4 hPa 0 mm - - -
1787858680 40.56° C 34% 1005.4 hPa 0 mm - - -
1787858079 40.56° C 35% 1005.4 hPa 0 mm - - -
1787857479 40.56° C 35% 1005.7 hPa 0 mm - - -
1787856878 40.56° C 37% 1005.7 hPa 0 mm - - -
1787855677 38.89° C 37% 1006 hPa 0 mm - - -
1787855076 38.33° C 37% 1006 hPa 0 mm - - -
1787854476 38.33° C 37% 1006 hPa 0 mm - - -
1787853875 38.33° C 40% 1006.4 hPa 0 mm - - -
1787853275 37.78° C 38% 1006.4 hPa 0 mm - - -
1787852674 37.78° C 40% 1006.7 hPa 0 mm - - -
1787852074 37.22° C 41% 1006.7 hPa 0 mm - - -
1787851473 36.67° C 43% 1006.7 hPa 0 mm - - -
1787850872 36.67° C 43% 1006.7 hPa 0 mm - - -
1787850272 36.11° C 45% 1007.1 hPa 0 mm - - -
1787849671 36.11° C 46% 1007.1 hPa 0 mm - - -

* Rain latest hour (hover to see other rain measurements)
** Current wind speed in m/s (hover to see current wind gust speed)